Left ArrowRight Arrow

39.71368, -82.59933

Hourly Observations for February 9, 2022

Temp ( °F °C ) Dew Point ( °F °C ) Humidity (%) Winds ( mph kmh ) Pressure ( in mb ) Visibility ( mi km ) Precip ( " mm )
12:53 am 00:53 Clear 39 3.9 25 -3.9 57 57 SSW 9 15 29.96 1015 10 16 0.00 0.00
1:53 am 01:53 Clear 37 2.8 25 -3.9 62 62 S 7 11 29.95 1014 10 16 0.00 0.00
2:53 am 02:53 Clear 38 3.3 25 -3.9 60 60 S 7 11 29.93 1014 10 16 0.00 0.00
3:53 am 03:53 Clear 38 3.3 25 -3.9 60 60 S 9 15 29.92 1013 10 16 0.00 0.00
4:53 am 04:53 Clear 38 3.3 25 -3.9 60 60 S 8 13 29.89 1012 10 16 0.00 0.00
5:53 am 05:53 Clear 40 4.4 25 -3.9 55 55 SSW 10 17 29.88 1012 10 16 0.00 0.00
6:53 am 06:53 Clear 39 3.9 25 -3.9 57 57 S 8 13 29.89 1012 10 16 0.00 0.00
7:53 am 07:53 Sunny 39 3.9 25 -3.9 57 57 S 7 11 29.89 1012 10 16 0.00 0.00
8:53 am 08:53 Sunny 40 4.4 26 -3.3 58 58 S 10 17 29.89 1012 10 16 0.00 0.00
9:53 am 09:53 Partly Cloudy 41 5 27 -2.8 57 57 SSW 12 19 29.89 1012 10 16 0.00 0.00
10:53 am 10:53 Cloudy 41 5 27 -2.8 57 57 S 13 20 29.86 1011 10 16 0.00 0.00
11:53 am 11:53 Mostly Sunny 43 6.1 27 -2.8 53 53 SW 9 15 29.86 1011 10 16 0.00 0.00
12:53 pm 12:53 Partly Cloudy 44 6.7 28 -2.2 53 53 SSW 8 13 29.83 1010 10 16 0.00 0.00
1:53 pm 13:53 Sunny 46 7.8 29 -1.7 51 51 SW 9 15 29.80 1009 10 16 0.00 0.00
2:53 pm 14:53 Sunny 48 8.9 30 -1.1 50 50 SW 13 20 29.79 1009 10 16 0.00 0.00
3:53 pm 15:53 Sunny 46 7.8 32 0 58 58 SSW 12 19 29.80 1009 10 16 0.00 0.00
4:53 pm 16:53 Sunny 45 7.2 33 0.6 63 63 SW 8 13 29.80 1009 10 16 0.00 0.00
5:53 pm 17:53 Mostly Sunny 43 6.1 32 0 65 65 SW 6 9 29.81 1010 10 16 0.00 0.00
6:53 pm 18:53 Mostly Clear 43 6.1 32 0 65 65 SSW 7 11 29.83 1010 10 16 0.00 0.00
7:53 pm 19:53 Clear 43 6.1 31 -0.6 63 63 SSW 6 9 29.83 1010 10 16 0.00 0.00
8:53 pm 20:53 Mostly Cloudy 44 6.7 30 -1.1 58 58 SW 14 22 29.83 1010 10 16 0.00 0.00
9:53 pm 21:53 Cloudy 43 6.1 30 -1.1 60 60 WSW 12 19 29.86 1011 10 16 0.00 0.00
10:53 pm 22:53 Cloudy 40 4.4 30 -1.1 68 68 W 10 17 29.88 1012 10 16 0.00 0.00
11:53 pm 23:53 Cloudy 40 4.4 31 -0.6 70 70 W 13 20 29.88 1012 10 16 0.00 0.00

Powered by Vaisala Xweather